FW8494 Weather Reports


time (UTC)temp
F
wind
direction
speed
knots
gust
knots
rain 1hr
in
rain 24hr
in
rain mn
in
humidity
%
barometer
mb
20260504081523 48 355 11.3 0.0 0.00 0.00 0.00 54 1011.1
20260504044550 56 29 15.6 0.0 0.00 0.00 0.00 37 1006.0
20260504043055 59 5 13.0 0.0 0.00 0.00 0.00 35 1005.4
20260504041549 59 14 11.3 0.0 0.00 0.00 0.00 33 1005.1
20260504040049 59 16 9.6 0.0 0.00 0.00 0.00 33 1004.7
20260504034555 59 20 10.4 0.0 0.00 0.00 0.00 33 1004.5
20260504033047 60 37 11.3 0.0 0.00 0.00 0.00 34 1004.1
20260504031547 60 25 9.6 0.0 0.00 0.00 0.00 34 1003.8
20260504030046 62 27 10.4 0.0 0.00 0.00 0.00 32 1003.6
20260504024551 64 43 9.6 0.0 0.00 0.00 0.00 28 1003.2
20260504023045 65 21 5.2 0.0 0.00 0.00 0.00 23 1003.0
20260504021549 67 13 5.2 0.0 0.00 0.00 0.00 21 1002.9
20260504020044 69 5 7.8 0.0 0.00 0.00 0.00 20 1003.0
20260504014544 70 5 8.7 0.0 0.00 0.00 0.00 19 1003.0
20260504013056 71 5 8.7 0.0 0.00 0.00 0.00 19 1003.0
20260504011543 72 333 9.6 0.0 0.00 0.00 0.00 18 1003.1
20260504010043 73 355 9.6 0.0 0.00 0.00 0.00 18 1003.2
20260504004539 73 330 9.6 0.0 0.00 0.00 0.00 18 1003.3
20260504003039 74 327 9.6 0.0 0.00 0.00 0.00 18 1003.4
20260504001540 74 360 10.4 0.0 0.00 0.00 0.00 18 1003.5
20260504000037 75 311 11.3 0.0 0.00 0.00 0.00 18 1003.7
20260503234535 75 355 10.4 0.0 0.00 0.00 0.00 17 1003.7
20260503233034 76 344 7.8 0.0 0.00 0.00 0.00 16 1003.7
20260503231533 77 340 8.7 0.0 0.00 0.00 0.00 16 1004.0
20260503230039 76 303 6.1 0.0 0.00 0.00 0.00 16 1004.0
20260503224529 76 336 10.4 0.0 0.00 0.00 0.00 16 1004.2
20260503223027 75 259 7.8 0.0 0.00 0.00 0.00 16 1004.5
20260503221529 75 267 7.0 0.0 0.00 0.00 0.00 16 1004.8
20260503220025 74 284 12.2 0.0 0.00 0.00 0.00 16 1005.0
20260503214536 74 278 5.2 0.0 0.00 0.00 0.00 18 1005.1
20260503213022 74 245 7.0 0.0 0.00 0.00 0.00 17 1005.4
20260503211519 76 324 7.0 0.0 0.00 0.00 0.00 16 1005.8
20260503210017 74 275 6.1 0.0 0.00 0.00 0.00 18 1006.1
20260503204516 74 310 6.1 0.0 0.00 0.00 0.00 19 1006.2
20260503203015 73 213 8.7 0.0 0.00 0.00 0.00 18 1006.4
20260503201512 74 323 7.0 0.0 0.00 0.00 0.00 18 1006.8
20260503200010 72 331 7.8 0.0 0.00 0.00 0.00 19 1007.0
20260503194509 73 303 9.6 0.0 0.00 0.00 0.00 18 1007.3
20260503193005 71 302 9.6 0.0 0.00 0.00 0.00 18 1007.5
20260503191504 71 319 12.2 0.0 0.00 0.00 0.00 20 1007.8
20260503190001 71 265 7.0 0.0 0.00 0.00 0.00 20 1008.1
20260503184614 71 330 8.7 0.0 0.00 0.00 0.00 20 1008.1
20260503183057 71 330 7.0 0.0 0.00 0.00 0.00 22 1008.2
20260503181555 70 246 7.8 0.0 0.00 0.00 0.00 20 1008.4
20260503180059 69 325 6.1 0.0 0.00 0.00 0.00 22 1008.7
20260503174554 69 340 8.7 0.0 0.00 0.00 0.00 22 1008.9
20260503173049 69 322 8.7 0.0 0.00 0.00 0.00 22 1009.0
20260503171549 68 332 9.6 0.0 0.00 0.00 0.00 26 1009.1